[[{"header":{"parameterUnit":"m.s-1","parameterCategory":1,"la1":30.2991,"la2":30.254,"lo1":-89.0895,"lo2":-89.0444,"dy":0.0017,"dx":0.0017,"nx":28,"ny":28,"refTime":"2023-08-29T03:00:00:Z","depth":0,"parameterNumber":2,"parameterNumberName":"U-component_of_WINDS"},"data":[0,0,0,0,0,0,0,0,0,0,0,0,0,0,0,0,0,0,0,0,0,0,0,0,0,0,0,0,0,0,0,0,0,0,0,0,0,0,0,0,0,0,0,0,0,0,0,0,0,0,0,0,0,0,0,0,0,0,-3.8025,-3.8025,0,-3.7989,-3.7989,-3.7989,-3.7822,-3.7818,-3.7814,-3.7811,-3.7776,-3.7779,-3.7782,0,0,0,0,0,0,0,0,0,0,0,0,0,-3.7951,-3.7954,-3.8025,-3.8025,-3.8024,-3.7989,-3.7989,-3.7988,-3.7823,-3.7818,-3.7813,-3.7809,-3.7775,-3.7779,-3.7782,0,0,0,0,0,0,0,0,0,0,0,0,0,-3.7957,-3.7954,-3.8025,-3.7937,-3.7929,-3.799,-3.7989,-3.7988,-3.7824,-3.7818,-3.7812,-3.7807,-3.7774,-3.7778,-3.7782,-3.7925,0,0,-3.7795,-3.7797,0,0,0,0,0,0,0,0,-3.7956,-3.7959,-3.7951,-3.7944,-3.7934,-3.7904,-3.795,-3.7967,-3.7825,-3.7864,-3.7811,-3.7804,-3.7824,-3.7823,-3.783,-3.7923,-3.7922,-3.7795,-3.7798,-3.7799,-3.7801,0,0,0,0,0,0,0,-3.7956,-3.796,-3.8011,-3.7951,-3.7941,-3.79,-3.7894,-3.7953,-3.7877,-3.786,-3.7848,-3.7846,-3.7818,-3.7826,-3.7828,-3.7921,-3.7795,-3.7799,-3.7801,-3.7803,-3.813,-3.8136,0,0,0,0,0,0,-3.7968,-3.7961,-3.8012,-3.801,-3.7931,-3.7906,-3.79,-3.792,-3.7876,-3.7864,-3.7851,-3.7838,-3.7822,-3.7823,-3.7826,-3.799,-3.7799,-3.7803,-3.7806,-3.8124,-3.8131,-3.8138,0,0,0,0,0,0,-3.7967,-3.7974,-3.8014,-3.7982,-3.7984,-3.7914,-3.7938,-3.7922,-3.793,-3.7869,-3.7855,-3.7873,-3.7817,-3.782,-3.7901,-3.7986,-3.7805,-3.7809,-3.8117,-3.8126,-3.8135,-3.832,0,0,0,0,0,0,-3.7966,-3.7975,-3.8028,-3.7984,-3.7986,-3.809,-3.7943,-3.7926,-3.7937,-3.792,-3.7886,-3.7875,-3.7813,-3.7896,-3.7905,-3.7989,-3.7812,-3.8109,-3.8121,-3.8132,-3.8306,-3.8334,-3.8358,0,0,0,0,0,-3.7964,-3.8082,-3.8032,-3.8039,-3.8051,-3.8095,-3.8096,-3.8022,-3.7945,-3.7998,-3.7959,-3.7876,-3.7975,-3.7906,-3.7915,-3.8001,-3.8103,-3.8117,-3.8131,-3.8294,-3.8329,-3.8358,0,0,0,0,0,0,-3.8139,-3.8075,-3.8018,-3.8126,-3.8117,-3.8067,-3.8132,-3.8061,-3.8075,-3.8059,-3.7967,-3.796,-3.8056,-3.8036,-3.7959,-3.8136,-3.8025,-3.8042,-3.8146,-3.8178,-3.8204,-3.8207,-3.7815,0,0,0,0,0,-3.819,-3.823,-3.8172,-3.8273,-3.8271,-3.8203,-3.8219,-3.8163,-3.815,-3.8146,-3.8112,-3.8104,-3.8133,-3.8154,-3.8178,-3.8302,-3.8292,-3.8365,-3.8392,-3.8414,-3.8429,-3.8493,-3.8525,-3.8184,-3.8184,-3.8184,0,0,-3.8296,-3.8266,-3.8297,-3.8308,-3.8294,-3.8338,-3.8201,-3.8254,-3.8286,-3.8154,-3.8228,-3.8204,-3.8189,-3.8292,-3.8336,-3.8279,-3.8521,-3.8432,-3.845,-3.8453,-3.8511,-3.8543,-3.8572,-3.8194,-3.8192,-3.8191,0,0,-3.8512,-3.8493,-3.8575,-3.8564,-3.8545,-3.8498,-3.8518,-3.8479,-3.8457,-3.853,-3.8432,-3.8469,-3.8522,-3.8514,-3.8518,-3.8731,-3.8655,-3.8741,-3.8879,-3.8943,-3.897,-3.8993,-3.907,-3.9098,-3.8757,-3.8757,-3.8757,0,-3.8646,-3.8709,-3.8626,-3.8685,-3.8692,-3.8574,-3.8656,-3.865,-3.8641,-3.8649,-3.8584,-3.8647,-3.8628,-3.8728,-3.878,-3.8787,-3.8807,-3.8745,-3.8972,-3.8995,-3.9016,-3.9087,-3.9116,-3.8768,-3.8766,-3.8765,-3.8764,0,-3.8875,-3.892,-3.8988,-3.8981,-3.8995,-3.9066,-3.8995,-3.902,-3.8962,-3.8923,-3.8999,-3.8972,-3.8988,-3.9008,-3.8952,-3.91,-3.9065,-3.8989,-3.8875,-3.906,-3.9126,-3.9153,-3.8783,-3.8779,-3.8776,-3.8773,0,0,-3.9201,-3.9146,-3.9173,-3.9168,-3.9138,-3.9171,-3.9236,-3.9251,-3.9274,-3.9272,-3.9324,-3.9371,-3.93,-3.9304,-3.9246,-3.9302,-3.9473,-3.9218,-3.9216,-3.9267,-3.9635,-3.9693,-3.9726,-3.9422,-3.9427,-3.9431,-3.9636,0,-3.9407,-3.9514,-3.9442,-3.9562,-3.9602,-3.949,-3.9547,-3.9535,-3.95,-3.953,-3.9491,-3.9525,-3.9428,-3.943,-3.948,-3.9442,-3.9546,-3.9426,-3.9471,-3.9474,-3.9479,-3.976,-3.9822,-4.0017,-3.9661,-3.9666,-3.9669,0,-3.9662,-3.9669,-3.9793,-3.9755,-3.9769,-3.9821,-3.9829,-3.9858,-3.9843,-3.9813,-3.9818,-3.9746,-3.9808,-3.9696,-3.978,-3.9701,-3.9715,-3.9699,-3.9705,-3.9706,-3.9583,-3.977,-4.0077,-4.0107,-3.9708,-3.9705,-3.9702,0,-3.9887,-3.9929,-4.0007,-4.0007,-3.9964,-4.0003,-3.9987,-3.9966,-3.9979,-3.9986,-3.9994,-4.0009,-4.0017,-4.0031,-3.9965,-3.989,-4.0058,-3.9941,-4.0036,-4.0038,-4.0077,-4.0075,-4.0391,-4.0086,-4.0086,-4.0085,-4.0085,0,-4.0125,-4.0206,-4.0108,-4.0157,-4.0243,-4.0159,-4.0248,-4.022,-4.0202,-4.0244,-4.0148,-4.019,-4.01,-4.0133,-4.0082,-4.016,-4.0164,-4.0143,-4.0129,-4.0152,-4.0155,-4.016,-4.0145,-4.0093,-4.0091,-4.009,-4.0088,0,-4.0392,-4.033,-4.0408,-4.0361,-4.0351,-4.0417,-4.0377,-4.042,-4.0378,-4.0433,-4.0441,-4.0376,-4.0409,-4.0345,-4.037,-4.0336,-4.0446,-4.041,-4.0451,-4.044,-4.0539,-4.0531,-4.087,-4.091,-4.058,-4.0583,-4.0586,0,-4.0548,-4.0607,-4.0565,-4.0586,-4.0575,-4.061,-4.0623,-4.0543,-4.056,-4.0547,-4.0593,-4.0618,-4.0634,-4.0693,-4.0648,-4.0667,-4.0631,-4.0749,-4.0634,-4.0655,-4.0634,-4.0631,-4.0637,-4.0773,-4.0777,-4.078,-4.0783,0,-4.0831,-4.0797,-4.0819,-4.0831,-4.0849,-4.0854,-4.0853,-4.0876,-4.079,-4.0815,-4.0848,-4.086,-4.0886,-4.0912,-4.0921,-4.0905,-4.0831,-4.0819,-4.0842,-4.0867,-4.0888,-4.0878,-4.0516,-4.0812,-4.0809,-4.0807,-4.0805,-4.0804,-4.1047,-4.1094,-4.1072,-4.11,-4.109,-4.1091,-4.1129,-4.1092,-4.1117,-4.1131,-4.1082,-4.1127,-4.1109,-4.1113,-4.1105,-4.1139,-4.1087,-4.112,-4.1129,-4.1138,-4.1154,-4.0883,-4.114,-4.1139,-4.1138,-4.1138,-4.1137,0,-4.1325,-4.1305,-4.1332,-4.1332,-4.1354,-4.1281,-4.1276,-4.1299,-4.1339,-4.1329,-4.1346,-4.1384,-4.1409,-4.1367,-4.1386,-4.1421,-4.1388,-4.1429,-4.1425,-4.1423,-4.12,-4.1178,-4.1456,-4.1456,-4.1456,-4.1456,-4.1455,-4.1455,-4.1473,-4.1548,-4.1512,-4.1582,-4.1561,-4.1603,-4.1606,-4.1607,-4.1598,-4.1644,-4.1665,-4.1636,-4.1614,-4.163,-4.165,-4.1637,-4.1649,-4.1702,-4.1678,-4.147,-4.1439,-4.1409,-4.1388,-4.1705,-4.1706,-4.1898,-4.19,-4.1901]},{"header":{"parameterUnit":"m.s-1","parameterCategory":1,"la1":30.2991,"la2":30.254,"lo1":-89.0895,"lo2":-89.0444,"dy":0.0017,"dx":0.0017,"nx":28,"ny":28,"refTime":"2023-08-29T03:00:00:Z","depth":0,"parameterNumber":3,"parameterNumberName":"V-component_of_WINDS"},"data":[0,0,0,0,0,0,0,0,0,0,0,0,0,0,0,0,0,0,0,0,0,0,0,0,0,0,0,0,0,0,0,0,0,0,0,0,0,0,0,0,0,0,0,0,0,0,0,0,0,0,0,0,0,0,0,0,0,0,-3.6238,-3.6239,0,-3.6319,-3.6319,-3.632,-3.6287,-3.6285,-3.6283,-3.6282,-3.6364,-3.6368,-3.6372,0,0,0,0,0,0,0,0,0,0,0,0,0,-3.6052,-3.6056,-3.6238,-3.6239,-3.624,-3.6318,-3.6319,-3.6321,-3.6288,-3.6285,-3.6283,-3.6281,-3.6362,-3.6367,-3.6372,0,0,0,0,0,0,0,0,0,0,0,0,0,-3.6133,-3.6057,-3.6237,-3.6233,-3.6233,-3.6318,-3.632,-3.6321,-3.6288,-3.6285,-3.6282,-3.628,-3.6361,-3.6367,-3.6373,-3.6467,0,0,-3.6391,-3.6393,0,0,0,0,0,0,0,0,-3.6128,-3.614,-3.6232,-3.6233,-3.6234,-3.629,-3.6284,-3.637,-3.6289,-3.6267,-3.6281,-3.6278,-3.6341,-3.6349,-3.637,-3.6471,-3.6474,-3.6391,-3.6395,-3.6397,-3.6399,0,0,0,0,0,0,0,-3.6123,-3.6136,-3.627,-3.6234,-3.6235,-3.6226,-3.6234,-3.63,-3.6319,-3.6269,-3.6267,-3.6277,-3.6341,-3.6365,-3.6372,-3.6476,-3.6391,-3.6396,-3.64,-3.6402,-3.6655,-3.6658,0,0,0,0,0,0,-3.6117,-3.6131,-3.6267,-3.6272,-3.6173,-3.6231,-3.6241,-3.6275,-3.6319,-3.6323,-3.6279,-3.6275,-3.6356,-3.6365,-3.6375,-3.6487,-3.6397,-3.6403,-3.6406,-3.6652,-3.6655,-3.6659,0,0,0,0,0,0,-3.6113,-3.613,-3.6264,-3.6201,-3.6218,-3.6238,-3.6276,-3.6278,-3.6301,-3.6326,-3.6329,-3.63,-3.6354,-3.6366,-3.6444,-3.6489,-3.6406,-3.6411,-3.6648,-3.6653,-3.6657,-3.6712,0,0,0,0,0,0,-3.6108,-3.6128,-3.6165,-3.6202,-3.6221,-3.6332,-3.6279,-3.6281,-3.6312,-3.6307,-3.6346,-3.635,-3.6353,-3.6435,-3.645,-3.6496,-3.6416,-3.6644,-3.665,-3.6656,-3.6706,-3.6718,-3.6728,0,0,0,0,0,-3.6102,-3.6178,-3.6167,-3.6184,-3.6268,-3.6335,-3.6346,-3.6347,-3.6316,-3.6352,-3.6368,-3.6349,-3.6482,-3.6443,-3.6459,-3.6508,-3.6641,-3.6648,-3.6655,-3.6702,-3.6716,-3.6728,0,0,0,0,0,0,-3.6146,-3.6183,-3.6172,-3.6262,-3.6296,-3.6329,-3.6376,-3.6363,-3.6406,-3.64,-3.6399,-3.6408,-3.6488,-3.6506,-3.6462,-3.66,-3.6556,-3.6567,-3.6586,-3.66,-3.6611,-3.6605,-3.6421,0,0,0,0,0,-3.6166,-3.6219,-3.6248,-3.6325,-3.6342,-3.6356,-3.6386,-3.6384,-3.6418,-3.6432,-3.6454,-3.6488,-3.6537,-3.6569,-3.6616,-3.6708,-3.6716,-3.675,-3.6761,-3.6769,-3.6779,-3.6827,-3.6842,-3.6682,-3.6682,-3.6682,0,0,-3.6209,-3.6236,-3.6269,-3.6335,-3.636,-3.6413,-3.6369,-3.6427,-3.6466,-3.6441,-3.6515,-3.6532,-3.657,-3.6655,-3.6693,-3.6672,-3.6824,-3.6778,-3.6785,-3.679,-3.6836,-3.6851,-3.6864,-3.6687,-3.6686,-3.6685,0,0,-3.6314,-3.634,-3.6406,-3.6432,-3.6472,-3.648,-3.6496,-3.6531,-3.6541,-3.6616,-3.6597,-3.6643,-3.6728,-3.6755,-3.678,-3.6892,-3.6876,-3.6907,-3.6965,-3.7012,-3.7024,-3.7035,-3.7074,-3.7088,-3.6917,-3.6917,-3.6917,0,-3.6362,-3.6442,-3.6442,-3.6502,-3.653,-3.6509,-3.6575,-3.6601,-3.6653,-3.6673,-3.6648,-3.6753,-3.6777,-3.6867,-3.6894,-3.6916,-3.6932,-3.6903,-3.7022,-3.7034,-3.7044,-3.7081,-3.7096,-3.692,-3.692,-3.6919,-3.6919,0,-3.6499,-3.6554,-3.6603,-3.6653,-3.6687,-3.675,-3.6758,-3.6792,-3.6787,-3.6797,-3.6872,-3.6899,-3.695,-3.6972,-3.6967,-3.706,-3.7046,-3.7022,-3.6978,-3.7063,-3.7097,-3.7112,-3.6925,-3.6924,-3.6923,-3.6922,0,0,-3.6635,-3.6683,-3.6701,-3.6723,-3.6764,-3.6806,-3.6867,-3.6917,-3.6945,-3.6982,-3.7032,-3.7103,-3.708,-3.7108,-3.7106,-3.7148,-3.7233,-3.7118,-3.7119,-3.7138,-3.7335,-3.7353,-3.7369,-3.7222,-3.7225,-3.7227,-3.7332,0,-3.6742,-3.685,-3.685,-3.6948,-3.6998,-3.6978,-3.703,-3.706,-3.7071,-3.7115,-3.7126,-3.7176,-3.7144,-3.716,-3.72,-3.7214,-3.7272,-3.7207,-3.7268,-3.727,-3.7259,-3.7388,-3.7407,-3.7505,-3.7346,-3.7348,-3.735,0,-3.6882,-3.6922,-3.7026,-3.7057,-3.7078,-3.7126,-3.717,-3.7212,-3.7245,-3.7249,-3.728,-3.7271,-3.7331,-3.7285,-3.7367,-3.7322,-3.7347,-3.7357,-3.7361,-3.7367,-3.7315,-3.7396,-3.7536,-3.7551,-3.7371,-3.7369,-3.7368,0,-3.697,-3.705,-3.7122,-3.7141,-3.718,-3.7213,-3.7231,-3.7261,-3.729,-3.7328,-3.7346,-3.7392,-3.7416,-3.7451,-3.7453,-3.742,-3.7536,-3.749,-3.7541,-3.7541,-3.7566,-3.7565,-3.7712,-3.7583,-3.7583,-3.7582,-3.7582,0,-3.709,-3.7153,-3.7161,-3.7206,-3.7275,-3.7274,-3.7343,-3.7358,-3.7384,-3.7429,-3.7414,-3.7457,-3.7458,-3.7502,-3.7504,-3.7571,-3.7583,-3.7587,-3.7587,-3.7589,-3.7588,-3.7605,-3.7598,-3.7586,-3.7586,-3.7585,-3.7584,0,-3.72,-3.7208,-3.7285,-3.7314,-3.7323,-3.7373,-3.7398,-3.7439,-3.7448,-3.7506,-3.7519,-3.7532,-3.7582,-3.7588,-3.7647,-3.7649,-3.7729,-3.7722,-3.7718,-3.7717,-3.7766,-3.7761,-3.7929,-3.795,-3.7808,-3.781,-3.7811,0,-3.7276,-3.7324,-3.7359,-3.7388,-3.7407,-3.7455,-3.7484,-3.7484,-3.7515,-3.7554,-3.759,-3.7639,-3.7678,-3.7758,-3.7773,-3.7817,-3.781,-3.7866,-3.7817,-3.7816,-3.781,-3.7807,-3.7811,-3.7876,-3.7877,-3.7879,-3.788,0,-3.7409,-3.741,-3.7453,-3.7497,-3.7532,-3.7566,-3.7599,-3.7623,-3.7627,-3.7662,-3.7713,-3.7743,-3.7802,-3.785,-3.7893,-3.791,-3.7895,-3.7895,-3.7908,-3.791,-3.7906,-3.7908,-3.7743,-3.7891,-3.789,-3.7889,-3.7888,-3.7888,-3.7504,-3.7545,-3.7575,-3.7623,-3.7647,-3.7677,-3.7716,-3.7729,-3.7772,-3.782,-3.7817,-3.7872,-3.7902,-3.7958,-3.7978,-3.802,-3.8002,-3.8022,-3.8027,-3.8032,-3.8037,-3.7899,-3.8028,-3.8028,-3.8028,-3.8028,-3.8027,0,-3.7635,-3.7653,-3.7696,-3.7742,-3.7779,-3.7761,-3.7796,-3.7827,-3.7877,-3.7905,-3.7943,-3.8001,-3.8046,-3.8064,-3.8108,-3.8139,-3.8133,-3.815,-3.8148,-3.8152,-3.8051,-3.8035,-3.8154,-3.8154,-3.8154,-3.8154,-3.8154,-3.8154,-3.7707,-3.7776,-3.778,-3.7859,-3.7876,-3.7931,-3.7952,-3.7979,-3.8001,-3.8066,-3.8104,-3.8115,-3.8138,-3.8184,-3.8224,-3.8228,-3.8245,-3.8265,-3.8266,-3.8172,-3.8159,-3.8147,-3.8131,-3.8269,-3.8269,-3.8362,-3.8363,-3.8364]}]]